LFQALFLC

Guest
Details From LFQA - Reims Prunay
To LFLC - Clermont-Ferrand_Auvergne
Flight Number -
Tags generated
Created
Modified
Stats Distance 209 nm / 388 km
Max Altitude 0 ft / 0 m
Waypoints 2
Social Downloads 0
Likes 0
Share VATSIM

Download

Looking for another format? Having issues loading an existing format? Contact us
Advertisement - Login to hide

Notes

Basic altitude profile: - Ascent Rate: 2500ft/min - Ascent Speed: 250kts - Cruise Altitude: 35000ft - Cruise Speed: 420kts - Descent Rate: 1500ft/min - Descent Speed: 250kts Options: - Use NATs: no - Use PACOTS: no - Use low airways: no - Use high airways: no

Route

LFQA LFLC

ID Type Via Altitude Latitude Longitude Leg Dist Tot Dist Heading (true) Name
O LFQA APT - 0 ft / 0 m 49.20882˚ 4.15705˚ - 0 nm - Reims Prunay
O LFLC APT - 0 ft / 0 m 45.78671˚ 3.16997˚ 209 nm 209 nm 191° / 191° Clermont-Ferrand_Auvergne

Altitude Profile

Advertisement - Login to hide

Weather


0- 5 10 15 20 25 30 35+ Temperature / ° C

Clouds and Precipitation
Forecast for 2018-05-25 18:00 UTC. Updated 2 hours ago

Ground ~20,000 ft ~40,000 ft Winds

LFQA

Details ICAO LFQA
Name Reims Prunay
Region France
Timezone Europe/Paris (UTC+2.0)
Stats Elevation 313 ft / 95 m (AMSL)
Location 49.208822° 4.157050°
Runways 1
Magnetic Variation 1.167° E

METAR

LFQA 251900Z AUTO 06006KT CAVOK 21/17 Q1015

Decode

TAF

Not found

Departure Runways

ID Width Length Bearing (true) Bearing (mag) Surface Threshold Offset Overrun Length
07 98 ft / 30 m 3,770 ft / 1,149 m 66.27° 65.10° Asphalt 640 ft / 195 m 0 ft / 0 m
25 98 ft / 30 m 3,770 ft / 1,149 m 246.29° 245.12° Asphalt 1,066 ft / 325 m 0 ft / 0 m

LFLC

Details ICAO LFLC (CFE)
Name Clermont-Ferrand_Auvergne
Region France
Timezone Europe/Paris (UTC+2.0)
Stats Elevation 1,089 ft / 332 m (AMSL)
Location 45.786712° 3.169967°
Runways 1
Magnetic Variation 1.034° E

METAR

LFLC 251900Z AUTO VRB03KT CAVOK 21/15 Q1014 NOSIG

Decode

TAF

TAF LFLC 251400Z 2515/2615 VRB03KT 9999 FEW050TCU TEMPO 2515/2517 VRB15G25KT 4000 -TSRA BKN055CB BKN120 BECMG 2519/2521 CAVOK TEMPO 2600/2607 16006KT BECMG 2609/2612 20008KT TEMPO 2613/2615 20015G27KT SCT065TCU

Decode

Destination Runways

ID Width Length Bearing (true) Bearing (mag) Surface Threshold Offset Overrun Length
08 148 ft / 45 m 9,878 ft / 3,011 m 81.95° 80.92° Asphalt 0 ft / 0 m 0 ft / 0 m
26 148 ft / 45 m 9,878 ft / 3,011 m 261.98° 260.95° Asphalt 476 ft / 145 m 0 ft / 0 m

Approach Navaids

Runway Type Ident Frequency Range Bearing (true) Bearing (mag) Slope Elevation
26 Localiser CF 111.10 MHz 27 nm / 50 km 261.98° 260.95° - 1,089 ft / 332 m (AMSL)
26 Glidescope CF 111.10 MHz 27 nm / 50 km 261.98° 260.95° 3.00° 1,089 ft / 332 m (AMSL)
26 DME CF 111.10 MHz 27 nm / 50 km - - - 1,089 ft / 332 m (AMSL)

Popular Alternatives